Zurück zum Katalog

USA 81

AktivMilitärPO
NORAD 21949·PAYLOAD·🇺🇸 United States

Gestartet Apr 25, 1992 von Vandenberg Space Force Base

Loading…

Nächste Überflüge (nächste 24 Stunden)

TLE

AktuellSource: Space-Track

Epoche: Sep 14, 2026, 14:53 UTC

1 21949U 92023A   26257.62036637  .00000134  00000-0  42096-4 0  9999
2 21949  85.0105  22.3716 0002424 108.4323 251.7133 14.32417505121839

Verfolge USA 81 in Echtzeit mit AllMySat

Download on the App Store